When you browse on this site, cookies collect data to enhance your experience and personalize the content and advertising you see.
Visit our Privacy Policy to learn more. By continuing to use the site, you agree to this use of cookies and data.
  • In Hungary
  • List of Countries
  • For 7 days
  • Water Temperature
  • Satellite Maps
  • Weather Map
  • News
  • Weather Widgets
  • user-avatar
    Login

    Hourly Weather Miekoszynek

    Today, 24 January, Thursday

    Time Temperature Precipitation Wind Pressure Humidity
    00:00 -9°C° 0 mm 4 mps 749 mmHg 68%
    01:00 -9°C° 0 mm 4 mps 749 mmHg 67%
    02:00 -9°C° 0 mm 4 mps 750 mmHg 69%
    03:00 -9°C° 0 mm 4 mps 750 mmHg 70%
    04:00 -9°C° 0 mm 4 mps 750 mmHg 71%
    05:00 -10°C° 0 mm 4 mps 750 mmHg 72%
    06:00 -10°C° 0 mm 4 mps 750 mmHg 74%
    07:00 -10°C° 0 mm 4 mps 750 mmHg 75%
    08:00 -10°C° 0 mm 4 mps 751 mmHg 73%
    09:00 -10°C° 0 mm 4 mps 751 mmHg 71%
    10:00 -10°C° 0 mm 4 mps 752 mmHg 69%
    11:00 -9°C° 0 mm 4 mps 752 mmHg 67%
    12:00 -9°C° 0 mm 4 mps 752 mmHg 65%
    13:00 -8°C° 0 mm 4 mps 751 mmHg 63%
    14:00 -8°C° 0 mm 5 mps 752 mmHg 64%
    15:00 -8°C° 0 mm 5 mps 752 mmHg 65%
    16:00 -8°C° 0 mm 5 mps 752 mmHg 67%
    17:00 -10°C° 0 mm 5 mps 752 mmHg 69%
    18:00 -10°C° 0 mm 5 mps 752 mmHg 71%
    19:00 -10°C° 0 mm 5 mps 752 mmHg 72%
    20:00 -10°C° 0 mm 5 mps 752 mmHg 72%
    21:00 -10°C° 0 mm 5 mps 752 mmHg 72%
    22:00 -10°C° 0 mm 5 mps 752 mmHg 72%
    23:00 -10°C° 0 mm 5 mps 752 mmHg 73%

    Tomorrow, 25 January, Friday

    Time Temperature Precipitation Wind Pressure Humidity
    00:00 -10°C° 0 mm 5 mps 752 mmHg 73%
    01:00 -11°C° 0 mm 5 mps 752 mmHg 73%
    02:00 -11°C° 0 mm 5 mps 752 mmHg 74%
    03:00 -11°C° 0 mm 5 mps 752 mmHg 75%
    04:00 -10°C° 0 mm 4 mps 751 mmHg 76%
    05:00 -10°C° 0.2 mm 4 mps 751 mmHg 78%
    06:00 -10°C° 0.2 mm 4 mps 751 mmHg 81%
    07:00 -10°C° 0.2 mm 4 mps 751 mmHg 83%
    08:00 -10°C° 0.3 mm 4 mps 752 mmHg 83%
    09:00 -10°C° 0.3 mm 4 mps 752 mmHg 84%
    10:00 -10°C° 0.3 mm 4 mps 752 mmHg 84%
    11:00 -10°C° 0.2 mm 4 mps 752 mmHg 83%
    12:00 -8°C° 0.2 mm 3 mps 751 mmHg 82%
    13:00 -8°C° 0.2 mm 3 mps 751 mmHg 80%
    14:00 -7°C° 0.1 mm 2 mps 751 mmHg 81%
    15:00 -7°C° 0.1 mm 2 mps 751 mmHg 82%
    16:00 -6°C° 0.1 mm 1 mps 751 mmHg 83%
    17:00 -6°C° 0.2 mm 1 mps 751 mmHg 85%
    18:00 -6°C° 0.2 mm 1 mps 751 mmHg 87%
    19:00 -6°C° 0.2 mm 1 mps 751 mmHg 89%
    20:00 -6°C° 0.1 mm 1 mps 752 mmHg 89%
    21:00 -6°C° 0.1 mm 1 mps 752 mmHg 90%
    22:00 -7°C° 0.1 mm 2 mps 752 mmHg 90%
    23:00 -7°C° 0 mm 2 mps 752 mmHg 90%

    Day after tomorrow, 26 January, Saturday

    Time Temperature Precipitation Wind Pressure Humidity
    00:00 -7°C° 0 mm 2 mps 751 mmHg 90%
    01:00 -7°C° 0 mm 2 mps 751 mmHg 90%
    02:00 -7°C° 0 mm 2 mps 751 mmHg 90%
    03:00 -8°C° 0 mm 3 mps 751 mmHg 89%
    04:00 -8°C° 0 mm 3 mps 751 mmHg 89%
    05:00 -8°C° 0 mm 3 mps 750 mmHg 88%
    06:00 -8°C° 0 mm 3 mps 750 mmHg 88%
    07:00 -8°C° 0 mm 3 mps 750 mmHg 87%
    08:00 -8°C° 0 mm 3 mps 749 mmHg 85%
    09:00 -9°C° 0 mm 4 mps 749 mmHg 83%
    10:00 -8°C° 0 mm 4 mps 748 mmHg 81%
    11:00 -8°C° 0.2 mm 4 mps 748 mmHg 83%
    12:00 -8°C° 0.2 mm 5 mps 747 mmHg 85%
    13:00 -7°C° 0.2 mm 5 mps 746 mmHg 87%
    14:00 -7°C° 0.7 mm 5 mps 745 mmHg 89%
    15:00 -7°C° 0.7 mm 5 mps 744 mmHg 91%
    16:00 -6°C° 0.7 mm 5 mps 743 mmHg 93%
    17:00 -5°C° 0.4 mm 5 mps 743 mmHg 93%
    18:00 -4°C° 0.4 mm 5 mps 743 mmHg 94%
    19:00 -2°C° 0.4 mm 4 mps 742 mmHg 94%
    20:00 -1°C° 0.1 mm 4 mps 743 mmHg 95%
    21:00 -1°C° 0.1 mm 4 mps 743 mmHg 96%
    22:00 -1°C° 0.1 mm 4 mps 743 mmHg 96%
    23:00 -1°C° 0 mm 3 mps 743 mmHg 96%

    27 January, Sunday

    Time Temperature Precipitation Wind Pressure Humidity
    00:00 -4°C° 0 mm 3 mps 744 mmHg 96%
    01:00 -4°C° 0 mm 2 mps 744 mmHg 96%
    02:00 -4°C° 0 mm 2 mps 744 mmHg 95%
    03:00 -5°C° 0 mm 2 mps 744 mmHg 95%
    04:00 -5°C° 0 mm 2 mps 744 mmHg 94%
    05:00 -5°C° 0 mm 2 mps 744 mmHg 94%
    06:00 -5°C° 0 mm 2 mps 744 mmHg 94%
    07:00 -5°C° 0 mm 2 mps 744 mmHg 94%
    08:00 -4°C° 0.2 mm 2 mps 744 mmHg 95%
    09:00 -4°C° 0.2 mm 3 mps 744 mmHg 95%
    10:00 -2°C° 0.2 mm 3 mps 743 mmHg 96%
    11:00 -2°C° 0.4 mm 3 mps 743 mmHg 97%
    12:00 -1°C° 0.4 mm 3 mps 742 mmHg 97%
    13:00 0°C° 0.4 mm 3 mps 742 mmHg 98%
    14:00 0°C° 0 mm 3 mps 741 mmHg 97%
    15:00 0°C° 0 mm 3 mps 741 mmHg 97%
    16:00 0°C° 0 mm 3 mps 741 mmHg 96%
    17:00 0°C° 0 mm 3 mps 740 mmHg 95%
    18:00 -2°C° 0 mm 4 mps 740 mmHg 94%
    19:00 -2°C° 0 mm 4 mps 740 mmHg 93%
    20:00 -2°C° 0 mm 4 mps 740 mmHg 91%
    21:00 -2°C° 0 mm 4 mps 740 mmHg 90%
    22:00 -2°C° 0 mm 4 mps 740 mmHg 89%
    23:00 -2°C° 0 mm 4 mps 739 mmHg 88%

    28 January, Monday

    Time Temperature Precipitation Wind Pressure Humidity
    00:00 -2°C° 0 mm 4 mps 739 mmHg 87%
    01:00 -2°C° 0 mm 4 mps 739 mmHg 86%
    02:00 -2°C° 0 mm 4 mps 739 mmHg 87%
    03:00 -2°C° 0 mm 4 mps 738 mmHg 88%
    04:00 -3°C° 0 mm 4 mps 738 mmHg 89%
    05:00 -3°C° 0 mm 4 mps 738 mmHg 89%
    06:00 -3°C° 0 mm 4 mps 738 mmHg 89%
    07:00 -3°C° 0 mm 4 mps 738 mmHg 89%
    08:00 -2°C° 0 mm 4 mps 738 mmHg 88%
    09:00 -2°C° 0 mm 5 mps 738 mmHg 86%
    10:00 -1°C° 0 mm 5 mps 739 mmHg 84%
    11:00 -1°C° 0 mm 5 mps 738 mmHg 84%
    12:00 0°C° 0 mm 5 mps 738 mmHg 84%
    13:00 -1°C° 0 mm 6 mps 738 mmHg 84%
    14:00 0°C° 0 mm 5 mps 738 mmHg 83%
    15:00 -1°C° 0 mm 5 mps 738 mmHg 82%
    16:00 -1°C° 0 mm 5 mps 739 mmHg 81%
    17:00 -1°C° 0 mm 5 mps 739 mmHg 82%
    18:00 -2°C° 0 mm 6 mps 739 mmHg 82%
    19:00 -2°C° 0 mm 6 mps 739 mmHg 82%
    20:00 -1°C° 0 mm 5 mps 740 mmHg 84%
    21:00 -2°C° 0 mm 5 mps 740 mmHg 86%
    22:00 -2°C° 0 mm 5 mps 740 mmHg 87%
    23:00 -2°C° 0 mm 4 mps 740 mmHg 89%

    29 January, Tuesday

    Time Temperature Precipitation Wind Pressure Humidity
    00:00 -2°C° 0 mm 4 mps 741 mmHg 90%
    01:00 -2°C° 0 mm 4 mps 741 mmHg 92%
    02:00 -3°C° 0 mm 4 mps 741 mmHg 92%
    03:00 -3°C° 0 mm 4 mps 741 mmHg 92%
    04:00 -2°C° 0 mm 3 mps 741 mmHg 92%
    05:00 -4°C° 0 mm 3 mps 742 mmHg 92%
    06:00 -4°C° 0 mm 3 mps 742 mmHg 93%
    07:00 -4°C° 0 mm 3 mps 742 mmHg 94%
    08:00 -4°C° 0 mm 3 mps 742 mmHg 92%
    09:00 -2°C° 0 mm 3 mps 743 mmHg 91%
    10:00 -2°C° 0 mm 3 mps 743 mmHg 90%
    11:00 -1°C° 0 mm 3 mps 743 mmHg 90%
    12:00 -1°C° 0 mm 3 mps 743 mmHg 89%
    13:00 -1°C° 0 mm 2 mps 743 mmHg 89%
    14:00 -1°C° 0 mm 2 mps 743 mmHg 89%
    15:00 -1°C° 0 mm 2 mps 743 mmHg 90%
    16:00 +1°C° 0 mm 1 mps 743 mmHg 90%
    17:00 -2°C° 0 mm 2 mps 743 mmHg 90%
    18:00 -2°C° 0 mm 2 mps 743 mmHg 91%
    19:00 -3°C° 0 mm 2 mps 743 mmHg 91%
    20:00 -3°C° 0 mm 2 mps 743 mmHg 91%
    21:00 -3°C° 0 mm 2 mps 743 mmHg 91%
    22:00 -3°C° 0 mm 2 mps 744 mmHg 91%
    23:00 -4°C° 0 mm 2 mps 743 mmHg 91%
    Show more